TimeEST,TemperatureF,Dew PointF,Humidity,Sea Level PressureIn,VisibilityMPH,Wind Direction,Wind SpeedMPH,Gust SpeedMPH,PrecipitationIn,Events,Conditions,WindDirDegrees,DateUTC
12:18 AM,66.2,64.4,94,30.12,10.0,ENE,6.9,-,N/A,,Overcast,60,2013-01-20 05:18:00
12:53 AM,66.0,64.9,96,30.10,10.0,ENE,9.2,-,N/A,,Overcast,60,2013-01-20 05:53:00
1:53 AM,66.0,64.9,96,30.10,10.0,NE,5.8,-,N/A,,Overcast,50,2013-01-20 06:53:00
2:03 AM,66.2,64.4,94,30.10,10.0,ENE,6.9,-,N/A,,Overcast,60,2013-01-20 07:03:00
2:53 AM,64.9,64.0,97,30.09,10.0,NE,5.8,-,N/A,,Overcast,50,2013-01-20 07:53:00
3:53 AM,64.9,64.9,100,30.10,10.0,NE,5.8,-,N/A,,Overcast,50,2013-01-20 08:53:00
4:53 AM,64.9,64.0,97,30.09,10.0,NE,4.6,-,N/A,,Overcast,40,2013-01-20 09:53:00
5:21 AM,64.4,64.4,100,30.10,9.0,NNE,6.9,-,N/A,,Overcast,30,2013-01-20 10:21:00
5:53 AM,64.9,64.0,97,30.10,10.0,ENE,4.6,-,N/A,,Overcast,60,2013-01-20 10:53:00
6:53 AM,64.0,64.0,100,30.11,10.0,NE,4.6,-,N/A,,Overcast,40,2013-01-20 11:53:00
7:53 AM,64.9,64.9,100,30.14,10.0,NE,4.6,-,N/A,,Overcast,50,2013-01-20 12:53:00
8:49 AM,66.2,64.4,94,30.15,10.0,NE,5.8,-,N/A,,Overcast,40,2013-01-20 13:49:00
8:53 AM,66.0,64.9,96,30.15,10.0,NNE,3.5,-,N/A,,Overcast,20,2013-01-20 13:53:00
9:53 AM,69.1,64.9,87,30.16,10.0,North,3.5,-,N/A,,Overcast,10,2013-01-20 14:53:00
10:53 AM,72.0,66.0,81,30.14,10.0,NE,4.6,-,N/A,,Overcast,50,2013-01-20 15:53:00
11:53 AM,75.0,66.0,73,30.11,10.0,Variable,3.5,-,N/A,,Mostly Cloudy,0,2013-01-20 16:53:00
12:53 PM,78.1,64.0,62,30.07,10.0,North,8.1,-,N/A,,Mostly Cloudy,360,2013-01-20 17:53:00
1:53 PM,77.0,66.0,69,30.05,10.0,West,10.4,-,N/A,,Overcast,260,2013-01-20 18:53:00
2:53 PM,75.0,66.9,76,30.04,10.0,West,6.9,-,N/A,,Mostly Cloudy,270,2013-01-20 19:53:00
4:53 PM,72.0,66.9,84,30.04,10.0,WNW,8.1,-,N/A,,Mostly Cloudy,300,2013-01-20 21:53:00
5:53 PM,70.0,66.9,90,30.05,10.0,NW,3.5,-,N/A,,Scattered Clouds,320,2013-01-20 22:53:00
6:53 PM,70.0,66.9,90,30.05,10.0,Calm,Calm,-,N/A,,Scattered Clouds,0,2013-01-20 23:53:00
7:53 PM,69.1,68.0,96,30.06,9.0,NNW,3.5,-,N/A,,Partly Cloudy,340,2013-01-21 00:53:00
8:53 PM,69.1,66.9,93,30.06,8.0,Calm,Calm,-,N/A,,Mostly Cloudy,0,2013-01-21 01:53:00
9:53 PM,69.1,66.9,93,30.07,8.0,Calm,Calm,-,N/A,,Overcast,0,2013-01-21 02:53:00
10:53 PM,69.1,66.0,90,30.07,10.0,NE,5.8,-,N/A,,Overcast,40,2013-01-21 03:53:00
11:53 PM,68.0,66.0,93,30.06,10.0,NE,6.9,-,N/A,,Overcast,50,2013-01-21 04:53:00